EA3CH Weather Reports


time (UTC)temp
C
wind
direction
speed
KPH
gust
KPH
rain 1hr
cm
rain 24hr
cm
rain mn
cm
humidity
%
barometer
mb
20260502123006 17 239 1.6 6.4 0.00 0.00 0.00 56 1021.7
20260502114506 16 247 1.6 6.4 0.00 0.00 0.00 60 1021.9
20260502113005 16 271 1.6 4.8 0.00 0.00 0.00 60 1022.1
20260502071506 12 275 1.6 6.4 0.00 0.00 0.00 81 1022.7
20260502063005 12 249 0.0 3.2 0.00 0.00 0.00 84 1022.6
20260502060006 12 267 1.6 4.8 0.00 0.00 0.00 86 1022.6
20260502044505 12 0 0.0 0.0 0.00 0.00 0.00 87 1022.3
20260502041505 12 303 0.0 3.2 0.00 0.00 0.00 85 1022.0
20260502040005 12 0 0.0 0.0 0.00 0.00 0.00 85 1022.2
20260502023005 13 262 0.0 4.8 0.00 0.00 0.00 87 1022.5
20260502013005 12 0 0.0 0.0 0.00 0.00 0.00 88 1022.8
20260502003005 12 0 0.0 0.0 0.00 0.00 0.00 86 1023.5
20260502000005 12 209 0.0 1.6 0.00 0.00 0.00 86 1023.5
20260501233005 12 251 0.0 3.2 0.00 0.00 0.00 85 1023.8
20260501223005 12 263 3.2 8.0 0.00 0.00 0.00 84 1023.5
20260501214504 11 0 0.0 0.0 0.00 0.00 0.00 86 1023.6
20260501211505 12 260 1.6 4.8 0.00 0.00 0.00 85 1023.6
20260501204505 12 260 0.0 3.2 0.00 0.00 0.00 81 1023.5
20260501203005 12 252 0.0 8.0 0.00 0.00 0.00 80 1023.5
20260501200004 13 250 1.6 4.8 0.00 0.00 0.00 76 1023.2
20260501184505 15 257 3.2 6.4 0.00 0.00 0.00 68 1022.4
20260501183005 15 266 1.6 6.4 0.00 0.00 0.00 68 1022.3
20260501180005 16 263 1.6 8.0 0.00 0.00 0.00 66 1022.1
20260501174505 16 255 1.6 6.4 0.00 0.00 0.00 65 1022.1
20260501173005 16 248 3.2 9.7 0.00 0.00 0.00 65 1022.0
20260501170004 17 248 1.6 4.8 0.00 0.00 0.00 65 1021.8
20260501163006 17 232 3.2 4.8 0.00 0.00 0.00 62 1021.8
20260501160007 18 240 3.2 11.3 0.00 0.00 0.00 62 1021.7
20260501150006 18 273 4.8 11.3 0.00 0.00 0.00 63 1021.6